Regional Weather Roundup
Issued by NWS

Home | Current Version | Previous Version | Graphics & Text | Print | Product List | Glossary On
Versions: 1 2 3 4 5 6 7 8 9 10 11 12 13 14 15 16 17 18 19 20 21 22 23 24 25 26 27 28 29 30 31 32 33 34 35 36 37 38 39 40 41 42 43 44 45 46 47 48 49 50
570
ASUS45 KBOU 100207
RWRCO

WEATHER ROUNDUP FOR COLORADO
NATIONAL WEATHER SERVICE DENVER/BOULDER CO
700 PM MST FRI DEC 09 2016

NOTE: "FAIR" INDICATES FEW OR NO CLOUDS BELOW 12000 FEET WITH NO
SIGNIFICANT WEATHER AND/OR OBSTRUCTIONS TO VISIBILITY.

COZ001>005-013-030-031-100300-
...NORTHWEST COLORADO...

CITY           SKY/WX    TMP DP  RH WIND       PRES   REMARKS
CRAIG          CLOUDY    33  26  75 CALM      30.16F
HAYDEN         MOCLDY    28  21  74 SE8       30.15F WCI  20
MEEKER         CLOUDY    38  24  57 W10       30.18F
MOUNT WERNER   NOT AVBL
STEAMBOAT SPGS MOCLDY    25  24  94 CALM      30.15F
WALDEN           N/A     32  25  74 SE16G22   30.14F WCI  21
$$

COZ006>008-011-100300-
...WEST CENTRAL VALLEYS...

CITY           SKY/WX    TMP DP  RH WIND       PRES   REMARKS
GRAND JUNCTION FAIR      27  18  69 E5        30.26S WCI  22
MONTROSE       FAIR      30  19  63 NE3       30.27S HAZE
EAGLE          CLOUDY    31  26  82 CALM      30.24S
RIFLE          CLOUDY    30  22  72 CALM      30.26S
DELTA          FAIR      31  19  61 NE6       30.26F WCI  25
NUCLA          FAIR      34  21  60 E7        30.29S WCI  28
$$

COZ017>023-064>068-100300-
...SOUTHWEST COLORADO...

CITY           SKY/WX    TMP DP  RH WIND       PRES   REMARKS
DURANGO        FAIR      27  16  63 N7        30.28S WCI  19
CORTEZ         FAIR      31  25  78 NE3       30.27S
PAGOSA SPRINGS FAIR      28  20  72 CALM      30.31R
TELLURIDE      MOCLDY    35  23  61 CALM      30.31S
WOLF CREEK PAS FAIR      16  16 100 SW14      30.35F WCI   1
$$

COZ009-010-012-014-032>034-037-058>063-100300-
...CENTRAL COLORADO...

CITY           SKY/WX    TMP DP  RH WIND       PRES   REMARKS
ASPEN          CLOUDY    30  27  88 S5        30.21F WCI  25
BUENA VISTA    FAIR      38  19  45 NW8       30.17F
COPPER MTN     LGT SNOW  25  18  74 MISG      30.22F
BERTHOUD PASS  LGT SNOW  18   5  57 NW32      30.15R VSB 1   WCI  -3
COTTONWOOD PAS FAIR      34  19  55 W16G36    30.17F WCI  23
GUNNISON       FAIR      20  18  92 CALM      30.27F
KREMMLING      CLOUDY    37  30  75 W14       30.19F
LEADVILLE      CLOUDY    27  19  72 NE12      30.20F WCI  17
MONARCH PASS     N/A     19  18  93 W41       30.34S WCI  -2
SALIDA         FAIR      42  20  41 SW20G29   30.24R
SUNLIGHT       CLOUDY    23  21  93 SW13G22   30.28S WCI  11
WILKERSON PASS FAIR      23  18  80 SW14G20   30.20F WCI  11
$$

COZ069>075-100300-
...SAN LUIS VALLEY/SANGRE DE CRISTO MOUNTAINS...

CITY           SKY/WX    TMP DP  RH WIND       PRES   REMARKS
ALAMOSA        FAIR      24  17  74 CALM      30.25R
LA VETA PASS   FAIR      28  19  69 NE20G36   30.23S WCI  15
SAGUACHE       FAIR      23  16  74 CALM      30.26S
$$

COZ035-036-038>040-100300-
...NORTHERN COLORADO FRONT RANGE...

CITY           SKY/WX    TMP DP  RH WIND       PRES   REMARKS
DENVER INTL AP MOCLDY    31  24  75 SE10      30.10R WCI  22
DMNS CITY PARK   N/A     33  25  73 NW5       30.12R WCI  29
AURORA         MOCLDY    36  29  76 E7        30.10S
FRONT RANGE AP MOCLDY    32  27  80 E7        30.12R WCI  26
ERIE MUNI ARPT CLOUDY    27  23  85 N3        30.15R
BOULDER MUN AP CLOUDY    28  21  74 CALM      30.15R
CENTENNIAL     MOCLDY    36  24  62 W5        30.09F
BROOMFIELD     MOCLDY    30  23  74 NW12      30.13R WCI  21
FORT COLLINS   FAIR      25  19  80 S3        30.17R
LONGMONT       CLOUDY    31  22  69 N6        30.17R WCI  25
$$

COZ041-046-047-076>085-087-088-100300-
...PIKES PEAK/PALMER DIVIDE AND SOUTHERN FOOTHILLS...

CITY           SKY/WX    TMP DP  RH WIND       PRES   REMARKS
COLO. SPRINGS  FAIR      37  18  46 CALM      30.12S
A. F. ACADEMY  FAIR      32  24  71 NE7       30.10F WCI  25
SCHRIEVER AFB  NOT AVBL
ELLICOTT       FAIR     N/A N/A N/A CALM      30.11R
FALCON         FAIR      34  20  58 SW7       30.13S WCI  28
FORT CARSON    FAIR      31  15  51 SE3       30.10R
LIMON          FAIR      27  18  69 SE10      30.15R WCI  17
MONUMENT HILL  FAIR      30  21  69 SW6       30.12S WCI  24
TRINIDAD       FAIR      45  18  34 W6        30.12F
$$

COZ042>045-048>051-090-091-100300-
...NORTHEAST COLORADO...

CITY           SKY/WX    TMP DP  RH WIND       PRES   REMARKS
GREELEY ARPT   FAIR      25  19  78 E3        30.17R
AKRON          MOCLDY    23  14  68 SE12      30.14F WCI  12
BURLINGTON     FAIR      23  15  71 SE7       30.18R WCI  15
WRAY           NOT AVBL
STERLING       FAIR      23  16  74 NE3       30.19R
HOLYOKE        FAIR      21  16  79 NE5       30.21F WCI  15
FORT MORGAN    FAIR      24  19  80 NE8       30.17R WCI  15
$$

COZ086-089-092>099-100300-
...SOUTHEAST COLORADO...

CITY           SKY/WX    TMP DP  RH WIND       PRES   REMARKS
PUEBLO         FAIR      27  13  55 N6        30.12R WCI  20
LA JUNTA       FAIR      29  11  47 NE7       30.13R WCI  22
LAMAR          FAIR      28  14  55 NE3       30.14R
SPRINGFIELD      N/A     33  22  63 S13       30.13F WCI  24
$$




USA.gov is the U.S. government's official web portal to all federal, state and local government web resources and services.